This is the latest recevied weather packets stored in our database for station/object OK0EK-11. If no packets are shown the sender has not sent any weather packets the latest 10 day(s).
| Time | Temp. | Humidity | Pressure | Rain* | Wind** | Luminosity | Snow |
|---|---|---|---|---|---|---|---|
| 1778081752 | 16.11° C | 64% | 1010.3 hPa | - | - | - | - |
| 1778081153 | 15.56° C | 66% | 1010.3 hPa | - | - | - | - |
| 1778080554 | 15.56° C | 66% | 1010.1 hPa | - | - | - | - |
| 1778079968 | 15.56° C | 67% | 1010.4 hPa | - | - | - | - |
| 1778079954 | 15.56° C | 67% | 1010.4 hPa | - | - | - | - |
| 1778079361 | 15.56° C | 66% | 1010.2 hPa | - | - | - | - |
| 1778079354 | 15.56° C | 66% | 1010.2 hPa | - | - | - | - |
| 1778078754 | 16.11° C | 65% | 1010.6 hPa | - | - | - | - |
| 1778078162 | 16.67° C | 64% | 1010.7 hPa | - | - | - | - |
| 1778078155 | 16.67° C | 64% | 1010.7 hPa | - | - | - | - |
| 1778077563 | 16.67° C | 63% | 1010.5 hPa | - | - | - | - |
| 1778077555 | 16.67° C | 63% | 1010.5 hPa | - | - | - | - |
| 1778076956 | 16.11° C | 64% | 1010.8 hPa | - | - | - | - |
| 1778076356 | 16.11° C | 64% | 1010.9 hPa | - | - | - | - |
| 1778075756 | 16.11° C | 65% | 1011 hPa | - | - | - | - |
| 1778075165 | 16.11° C | 64% | 1011 hPa | - | - | - | - |
| 1778075157 | 16.11° C | 64% | 1011 hPa | - | - | - | - |
| 1778074558 | 16.67° C | 62% | 1011.1 hPa | - | - | - | - |
| 1778073972 | 16.67° C | 62% | 1011.2 hPa | - | - | - | - |
| 1778073959 | 16.67° C | 62% | 1011.2 hPa | - | - | - | - |
| 1778073370 | 17.22° C | 61% | 1011.3 hPa | - | - | - | - |
| 1778073360 | 17.22° C | 61% | 1011.3 hPa | - | - | - | - |
| 1778072773 | 17.22° C | 61% | 1011.2 hPa | - | - | - | - |
| 1778072760 | 17.22° C | 61% | 1011.2 hPa | - | - | - | - |
| 1778072161 | 16.67° C | 61% | 1011.4 hPa | - | - | - | - |
* Rain since midnight (hover to see other rain measurements)
** Current wind speed in m/s (hover to see current wind gust speed)